Location: Newark
(9.4667°S, 159.8167°E)
Time: 05:04:00
(UTC+00:00)

Vanguard 1 - Pass Details

Date: 14 November 2019
Orbit: 652 x 3832 km, 34.3° (Epoch: 09 December)

Event Time Altitude Azimuth Distance (km) Brightness Sun altitude
Rises 09:01:57 0° 323° (NW) 3,868 13.3 -24.0°
Reaches altitude 10° 09:04:14 10° 329° (NNW) 3,173 12.7 -24.5°
Maximum altitude 09:12:07 51° 44° (NE) 2,159 11.3 -26.2°
Enters shadow 09:18:14 32° 99° (E) 3,371 12.3 -27.6°
Exits shadow 09:24:53 14° 113° (ESE) 5,186 13.4 -29.0°
Drops below altitude 10° 09:26:39 10° 115° (ESE) 5,667 13.6 -29.4°
Sets 09:32:16 0° 119° (ESE) 7,145 14.2 -30.6°
